Погода в Котласе

Поиск расширенной информации на нашем сайте:

Полезная информация:

Новости сайта



02.01.2020
Опубликован Долгосрочный прогноз погоды по городам России и ближнего зарубежья на январь 2020 года.
Карты: Прогноз на январь и февраль 2020 года, Сравнение прогнозируемой аномалии приземной температуры воздуха на январь 2020 года по разным моделям.




Погода в Котласе - сегодня

Время (UTC), дата Ветер
(°,м/с) 
Видим.   Явления Облачность Т
(°С)
Тd
(°С)
f(%) Тe
(°С)
Pmin
(гПа)
dP
(гПа)
Po
(мм)
O2
(г/м3)
Тmin Tmax R s Состояние
почвы
21 22.09.20 290 (З) 10 км    3/0 верхняя 
[Ci fib]
+6.4 +2.2 74 +5  996.6  2.2  742  292           
00 23.09.20 260 (З) 10 км    3/0 верхняя 
[Ci fib]
+5.6 +1 72 +5  999.7  745  294           
03 23.09.20 260 (З) 20000 м    9/3 300 м верхняя 
[Sc|Ci fib]
+5.8 +1.3 73 +5  1003.1  3.4  747  295  +5.6    0.1    влажная 
06 23.09.20 280 (З) 6{10}  20000 м    10/8 1080 м средняя, верхняя 
[Sc|Ac trans|Ci fib]
+8 +2.5 68 +6  1006.1  3.2  750  293  +5.3         
09 23.09.20 310 (СЗ) 6{11}  20000 м    9/3 1000 м средняя, верхняя 
[Sc|Ac trans|Ci fib]
+9.8 +3.6 65 +8  1009.9  3.7  752  292           
12 23.09.20 340 (С) 3{10}  20000 м    6/3 1000 м верхняя 
[Sc|Ci fib]
+11.6 +4.3 61 +11  1012.3  2.5  754  291           
15 23.09.20 тихо ()   20000 м    8/1 1000 м верхняя 
[Sc|Ci fib]
+6.7 +5.6 93 +7  1014.4  756  296    +11.8       
18 23.09.20 150 (ЮВ) 10 км    4/0 верхняя 
[Ci fib]
+2 +1.7 98 +3  1015.4  0.9  756  302           
21 23.09.20 140 (ЮВ) 10 км    3/0 верхняя 
[Ci fib]
+1 +0.7 98 1017.6  758  304           
00 24.09.20 160 (Ю) 10 км    1/0 верхняя 
[Ci fib]
-0.2 -0.8 96 -1  1018.8  1.2  759  306           
03 24.09.20 160 (Ю) 20000 м    6/0 верхняя 
[Ci fib]
+0.3 -0.5 94 -1  1019.1  0.3  759  306  -0.2        замёрзшая 
06 24.09.20 160 (Ю) 20000 м    3/1 1000 м средняя, верхняя 
[Sc|Ac trans|Ci fib]
+7 +3.2 77 +6  1018  -0.9  758  297           
09 24.09.20 190 (Ю) 20000 м    3/0 верхняя 
[Ci fib]
+14 +7.3 64 +14  1017.5  -0.4  758  289           
12 24.09.20 190 (Ю) 20000 м    4/0 верхняя 
[Ci fib]
+17.8 +10.5 62 +20  1017.2  -0.1  758  285           
15 24.09.20 170 (Ю) 20000 м    4/0 верхняя 
[Ci fib]
+14.6 +10.4 76 +16  1017.8  0.4  758  288    +17.9       
18 24.09.20 170 (Ю) 10 км    3/0 верхняя 
[Ci fib]
+9.7 +9 95 +10  1018.7  0.8  759  294           
21 24.09.20 160 (Ю) 4000 м  дымка  6/0 верхняя 
[Ci fib]
+8.5 +8.2 98 +10  1019.8  1.1  760  295           
00 25.09.20 160 (Ю) 4000 м  дымка  8/0 средняя, верхняя 
[Ac trans|Ci fib]
+9.3 +8.9 97 +9  1020.5  0.7  760  295           
03 25.09.20 170 (Ю) 4000 м  дымка  8/0 средняя 
[Ac trans]
+8.7 +7.8 94 +8  1020.5  760  296  +7.5        влажная 
06 25.09.20 170 (Ю) 20000 м    ясно 
+12.6 +10.6 88 +14  1021.1  0.7  761  291           
09 25.09.20 170 (Ю) 20000 м    5/0 средняя 
[Ac trans]
+17.8 +12.4 71 +22  1021.6  0.7  761  286           
12 25.09.20 200 (Ю) 20000 м    5/3 1000 м средняя 
[Sc|Ac trans]
+20.4 +13 62 +25  1021.5  -0.1  761  283           
15 25.09.20 160 (Ю) 20000 м    4/0 средняя, верхняя 
[Ac trans|Ci fib]
+16.4 +9.9 65 +18  1021.8  0.3  761  288    +20.6       
18 25.09.20 170 (Ю) 10 км    3/0 верхняя 
[Ci fib]
+11.9 +11.1 95 +14  1022  761  292           
21 25.09.20 160 (Ю) 10 км    1/0 верхняя 
[Ci fib]
+10.2 +9.2 94 +10  1022.9  0.8  762  294           
Время (UTC), дата Ветер
(°,м/с) 
Видим.   Явления Облачность Т
(°С)
Тd
(°С)
f(%) Тe
(°С)
Pmin
(гПа)
dP
(гПа)
Po
(мм)
O2
(г/м3)
Тmin Tmax R s Состояние
почвы

Для получения пояснительной информации подведите курсор к названию столбца.

ПОГОДА в Котласе - архив

Всё, что Вы хотите узнать о погоде в Котласе - удобно и подробно!

Выберите нужную дату (начиная с 1 января 2019* года) и нажмите кнопку "Найти".
Будут отображены архивные сводки погоды по пункту Котлас, начиная с указанной даты.


Отображать данные в формате CSV (для использования в таблицах Excel)


Внимание! Наш архив погоды предназначен исключительно для личного некоммерческого использования в познавательных целях. Если Вам необходимы официальные справки о состоянии погоды (для производственных, юридических, коммерческих и т.п. целей), обращайтесь в органы Росгидромета.

*Примечание: данная дата относится к архиву по метеостанциям СССР (Россия, СНГ, Балтия).
Архив по метеостанциям Зарубежной Европы и Азии (кроме Китая) хранится 10 дней, по другим регионам земного шара (Китай, Африка, Америка, Австралия, Океания) - 1 день.

Котлас - район местоположения метеостанции


Название, широта, долгота, высота метеостанции:
Котлас 61.2°ш. 46.7°д. 56 м над ур. моря [Российская Федерация]

Дополнительная информация

В oтличие oт бoльшинства пoгoдных сайтoв мы публикуем пoдрoбную метеoинфoрмацию в детальнoм прoфессиoнальнoм фoрмате.

Характеристики температуры и влажнoсти вoздуха измеряются на высoте 2 м в тени вдали oт зданий и деревьев.
Скoрoсть ветра измеряется на высoте 10 м (на урoвне рoста челoвека скoрoсть ветра ниже в 1.5-2 раза). Если метеoстанция нахoдится в гoрoде или в лесу, тo скoрoсть ветра занижена на 2-4 м/с пo сравнению с oткрытым местoм. Скoрoсть ветра над акватoриями крупных рек и oзёр, а также на вершинах хoлмoв на 2-5 м/с выше, чем в oбычных услoвиях.
Атмoсфернoе давление в разных тoчках местнoсти мoжет значительнo oтличаться oт давления на метеoстанции, в зависимoсти oт услoвий рельефа (при пoдъёме на 10 м давление пoнижается примернo на 1 мм рт.ст.).